Location: Bessat
(45.8735°N, 1.9924°E)
Time: 22:58:37
(UTC+00:00)

Akebono - Pass Details

Date: 11 May 2021
Orbit: 255 x 2884 km, 75.0° (Epoch: 24 June)

Event Time Altitude Azimuth Distance (km) Brightness Sun altitude
Rises 20:42:37 0° 341° (NNW) 2,114 9.6 -13.5°
Reaches altitude 10° 20:44:41 10° 343° (NNW) 1,135 8.0 -13.7°
Maximum altitude 20:46:57 74° 70° (ENE) 274 3.7 -14.0°
Enters shadow 20:47:19 53° 138° (SE) 324 3.8 -14.0°
